"Pseudo-MPEC" for CCX8TP2

Created 2025 Feb 5 7:31:10 UT using Find_Orb

Click here for an explanation of pseudo-MPECs

 
 Astrometry: 
     CCX8TP2*1C2025 02 04.29378310 02 43.807+03 26 19.97   ~2492 20.96GVNEOCPG96
     CCX8TP2 1C2025 02 04.29947610 02 44.725+03 27 33.41   ~2492 21.86GVNEOCPG96
     CCX8TP2 1C2025 02 04.30517210 02 45.701+03 28 45.73   ~2492 21.11GVNEOCPG96
     CCX8TP2 1C2025 02 04.31085010 02 46.626+03 29 57.19   ~2492 21.28GVNEOCPG96
     CCX8TP2 KC2025 02 04.34311710 02 51.839+03 36 45.97   ~249V 20.55GVNEOCPI52
     CCX8TP2 KC2025 02 04.34739710 02 52.559+03 37 39.47   ~249V       VNEOCPI52
     CCX8TP2 KC2025 02 04.35166410 02 53.236+03 38 33.90   ~249V 20.48GVNEOCPI52
     CCX8TP2 KB2025 02 04.97630610 05 18.67 +05 46 49.6    ~250H 20.1 GVNEOCPI93
     CCX8TP2 KC2025 02 04.97984410 05 17.11 +05 47 31.1    ~2502 20.4 GVNEOCPL01
     CCX8TP2 KC2025 02 04.98217710 05 17.51 +05 47 59.4    ~2502 20.3 GVNEOCPL01
     CCX8TP2 KC2025 02 04.98450510 05 17.89 +05 48 27.8    ~2502 20.6 GVNEOCPL01
     CCX8TP2 KC2025 02 04.98698410 05 18.28 +05 48 57.7    ~2502 20.4 GVNEOCPL01
     CCX8TP2 KB2025 02 04.98765410 05 20.58 +05 49 07.1    ~250H 19.7 GVNEOCPI93
     CCX8TP2 KB2025 02 04.99885810 05 22.45 +05 51 23.1    ~250H 20.7 GVNEOCPI93
     CCX8TP2 KC2025 02 05.02702810 05 27.091+05 56 47.15   ~251l 20.6 GWNEOCPJ95
     CCX8TP2 KC2025 02 05.04591910 05 30.293+06 00 35.21   ~251l 20.5 GWNEOCPJ95

Station data:
(G96) Mt. Lemmon Survey  (N32.442729 W110.788720)  US/Arizona.  Observer E.
   J. Christensen.  + 10K CCD.
(I52) Steward Observatory, Mt. Lemmon Station  (N32.442570 W110.788920)
   US/Arizona.  Observers T. A. Pruyne, B. M. Africano, E. J. Christensen, G.
   A. Farneth, D. C. Fuls, A. R. Gibbs, A. D. Grauer, H. Gröller, J. A.
   Johnson, R. A. Kowalski, S. M. Larson, G. J. Leonard, D. Rankin, R. L.
   Seaman, F. C. Shelly, K. W. Wierzchoś. 1.0-m prime focus + CCD.
(I93) St Pardon de Conques  (N44.558670 W0.202960)  France.  Observers F.
   Losse, W. D'Anna. Measurer F. Losse. 0.40-m f/3.7 reflector + CCD.
(J95) Great Shefford  (N51.474969 W1.447003)  UK/England.  Observer P.
   Birtwhistle. 0.41-m f/6.3 Schmidt-Cassegrain + CCD.
(L01) Višnjan Observatory, Tičan  (N45.290897 E13.749300)  Croatia.
   Observers K. Korlević, D. Pujagic, V. Dobos. Measurers D. Pujagic, K.
   Korlević. 1.0-m f/2.9 reflector + CCD.

Orbital elements:  CCX8TP2
   Perihelion 2024 Dec 19.05835 +/- 0.0561 TT =  1:24:01 (JD 2460663.55835)
Epoch 2025 Feb  5.0 TT = JDT 2460711.5   Earth MOID: 0.0370      AutoNEOCP
M  37.09772905 +/- 0.10             (J2000 ecliptic)
n   0.77381002 +/- 0.0023           Peri.  307.02774 +/- 0.12
a   1.17502330 +/- 0.00233          Node   138.39611 +/- 0.0049
e   0.1722340 +/- 0.00215           Incl.    8.29662 +/- 0.047
P   1.274/465.222d         H 26.74  G  0.15   U  8.7
q 0.97264431 +/- 0.000701    Q 1.37740229 +/- 0.00523
From 16 observations 2025 Feb. 4-5 (18.1 hr); mean residual 0".36
Residuals in arcseconds: 
250204 G96  .13-  .80-    250204 I52  .19+  .22+    250204 I93  .08+  .23-    
250204 G96  .50-  .38+    250204 I93  .01-  .16+    250204 I93  .21+  .21-    
250204 G96  .07+  .44+    250204 L01  .56+  .34-    250205 J95  .09-  .14+    
250204 G96  .01-  .09-    250204 L01  .80+  .35-    250205 J95  .24-  .02+    
250204 I52  .17-  .27+    250204 L01  .75+  .18-    
250204 I52  .31+  .32-    250204 L01  .49+  .34-    

Ephemerides (geocentric):
Date (UTC) HH   RA             Dec           delta  r     elong  mag " sig PA
---- --------  ------------   ------------  ------ ------ -----  --- --------
2025 02 05 08  10 06 33.045   +07 00 03.83  .04559 1.0300 164.7 20.9 1.44   3
2025 02 05 09  10 06 42.067   +07 08 15.43  .04566 1.0301 164.7 20.9 1.55   4
2025 02 05 10  10 06 51.064   +07 16 25.60  .04573 1.0302 164.8 20.9 1.66   5
2025 02 05 11  10 07 00.036   +07 24 34.33  .04580 1.0303 164.9 20.9 1.78   6
2025 02 05 12  10 07 08.983   +07 32 41.62  .04587 1.0304 165.0 20.9 1.90   7
2025 02 05 13  10 07 17.905   +07 40 47.47  .04594 1.0305 165.1 20.9 2.02   7
2025 02 05 14  10 07 26.803   +07 48 51.87  .04601 1.0306 165.2 20.9 2.16   8
2025 02 05 15  10 07 35.676   +07 56 54.83  .04608 1.0307 165.3 20.9 2.29   8
2025 02 05 16  10 07 44.524   +08 04 56.34  .04615 1.0308 165.4 20.9 2.44   9
2025 02 05 17  10 07 53.348   +08 12 56.40  .04622 1.0309 165.4 20.9 2.58   9
2025 02 05 18  10 08 02.147   +08 20 55.02  .04629 1.0309 165.5 20.9 2.74  10
2025 02 05 19  10 08 10.922   +08 28 52.20  .04636 1.0310 165.6 20.9 2.89  10
2025 02 05 20  10 08 19.673   +08 36 47.92  .04643 1.0311 165.7 20.9 3.05  10
2025 02 05 21  10 08 28.399   +08 44 42.20  .04650 1.0312 165.8 20.9 3.22  11
2025 02 05 22  10 08 37.101   +08 52 35.03  .04658 1.0313 165.8 20.9 3.39  11
2025 02 05 23  10 08 45.779   +09 00 26.41  .04665 1.0314 165.9 20.9 3.57  11
2025 02 06 00  10 08 54.433   +09 08 16.34  .04672 1.0315 166.0 20.9 3.75  12
2025 02 06 01  10 09 03.063   +09 16 04.82  .04679 1.0316 166.1 20.9 3.93  12
2025 02 06 02  10 09 11.669   +09 23 51.85  .04687 1.0317 166.1 20.9 4.12  12
2025 02 06 03  10 09 20.251   +09 31 37.44  .04694 1.0318 166.2 20.9 4.31  12
2025 02 06 04  10 09 28.809   +09 39 21.57  .04702 1.0319 166.3 20.9 4.51  12
2025 02 06 05  10 09 37.343   +09 47 04.26  .04709 1.0320 166.3 20.9 4.71  13
2025 02 06 06  10 09 45.853   +09 54 45.49  .04716 1.0320 166.4 20.9 4.92  13
2025 02 06 07  10 09 54.340   +10 02 25.28  .04724 1.0321 166.5 20.9 5.13  13
2025 02 06 08  10 10 02.803   +10 10 03.63  .04731 1.0322 166.5 20.9 5.34  13
2025 02 06 09  10 10 11.242   +10 17 40.52  .04739 1.0323 166.6 20.9 5.56  13
2025 02 06 10  10 10 19.658   +10 25 15.97  .04747 1.0324 166.7 20.9 5.79  13
2025 02 06 11  10 10 28.050   +10 32 49.97  .04754 1.0325 166.7 20.9 6.01  13
2025 02 06 12  10 10 36.419   +10 40 22.53  .04762 1.0326 166.8 20.9 6.24  14
2025 02 06 13  10 10 44.765   +10 47 53.64  .04769 1.0327 166.9 20.9 6.48  14
2025 02 06 14  10 10 53.087   +10 55 23.30  .04777 1.0328 166.9 20.9 6.71  14
2025 02 06 15  10 11 01.387   +11 02 51.53  .04785 1.0329 167.0 20.9 6.95  14
2025 02 06 16  10 11 09.662   +11 10 18.31  .04793 1.0330 167.0 20.9 7.20  14
2025 02 06 17  10 11 17.915   +11 17 43.65  .04800 1.0331 167.1 20.9 7.45  14
2025 02 06 18  10 11 26.145   +11 25 07.54  .04808 1.0331 167.1 21.0 7.70  14
2025 02 06 19  10 11 34.352   +11 32 30.00  .04816 1.0332 167.2 21.0 7.96  14
2025 02 06 20  10 11 42.535   +11 39 51.02  .04824 1.0333 167.2 21.0 8.22  14
2025 02 06 21  10 11 50.696   +11 47 10.61  .04832 1.0334 167.3 21.0 8.48  14
2025 02 06 22  10 11 58.834   +11 54 28.75  .04840 1.0335 167.3 21.0 8.74  14
2025 02 06 23  10 12 06.949   +12 01 45.47  .04848 1.0336 167.4 21.0 9.01  14
2025 02 07 00  10 12 15.042   +12 09 00.75  .04856 1.0337 167.4 21.0 9.29  14
2025 02 07 01  10 12 23.111   +12 16 14.60  .04864 1.0338 167.5 21.0 9.56  15
2025 02 07 02  10 12 31.158   +12 23 27.01  .04872 1.0339 167.5 21.0 9.84  15
2025 02 07 03  10 12 39.183   +12 30 38.00  .04880 1.0340 167.6 21.0 10.1  15
2025 02 07 04  10 12 47.185   +12 37 47.56  .04888 1.0341 167.6 21.0 10.4  15
2025 02 07 05  10 12 55.164   +12 44 55.70  .04896 1.0342 167.6 21.0 10.7  15
2025 02 07 06  10 13 03.121   +12 52 02.41  .04904 1.0343 167.7 21.0 11.0  15
2025 02 07 07  10 13 11.056   +12 59 07.70  .04912 1.0344 167.7 21.0 11.3  15